User: anonymous   Login
Location: Newark
(51.0089°N, 21.5817°E)
Time: 12:28:06
(UTC+00:00)
Language:

DUCHIFAT 1 - Orbit

View from above orbital plane
View from above orbital plane
View from above satellite
View from above satellite

Ground track
Ground track

The orbit data is extracted from the following two-line orbital elements,

1 40021U 14033M   20048.53702815 +.00000361 +00000-0 +42539-4 0  9990
2 40021 097.9368 339.0896 0012286 332.4673 027.5892 14.90812633307871
Epoch (UTC): 17 February 2020 12:53:19
Eccentricity: 0.0012286
inclination: 97.9368°
perigee height: 587 km
apogee height: 604 km
right ascension of ascending node: 339.0896°
argument of perigee: 332.4673°
revolutions per day: 14.90812633
mean anomaly at epoch: 27.5892°
orbit number at epoch: 30787

The dashed part of the orbit path shows where the satellite is in the earth's shadow,  

DLR